Year,Month,Day,Hour,Minute,Value (Times are PST for temperature in C)
2008,07,26,00,00,15.00
2008,07,26,00,01,15.00
2008,07,26,00,02,15.10
2008,07,26,00,03,15.10
2008,07,26,00,04,15.10
2008,07,26,00,05,15.10
2008,07,26,00,06,15.20
2008,07,26,00,07,15.20
2008,07,26,00,08,15.20
2008,07,26,00,09,15.20
2008,07,26,00,10,15.20
2008,07,26,00,11,15.20
2008,07,26,00,12,15.20
2008,07,26,00,13,15.20
2008,07,26,00,14,15.20
2008,07,26,00,15,15.20
2008,07,26,00,16,15.20
2008,07,26,00,17,15.20
2008,07,26,00,18,15.20
2008,07,26,00,19,15.20
2008,07,26,00,20,15.30
2008,07,26,00,21,15.30
2008,07,26,00,22,15.30
2008,07,26,00,23,15.30
2008,07,26,00,24,15.30
2008,07,26,00,25,15.30
2008,07,26,00,26,15.30
2008,07,26,00,27,15.40
2008,07,26,00,28,15.40
2008,07,26,00,29,15.40
2008,07,26,00,30,15.40
2008,07,26,00,31,15.40
2008,07,26,00,32,15.40
2008,07,26,00,33,15.40
2008,07,26,00,34,15.40
2008,07,26,00,35,15.40
2008,07,26,00,36,15.40
2008,07,26,00,37,15.40
2008,07,26,00,38,15.40
2008,07,26,00,39,15.40
2008,07,26,00,40,15.40
2008,07,26,00,41,15.40
2008,07,26,00,42,15.30
2008,07,26,00,43,15.40
2008,07,26,00,44,15.40
2008,07,26,00,45,15.40
2008,07,26,00,46,15.40
2008,07,26,00,47,15.40
2008,07,26,00,48,15.40
2008,07,26,00,49,15.40
2008,07,26,00,50,15.40
2008,07,26,00,51,15.40
2008,07,26,00,52,15.40
2008,07,26,00,53,15.40
2008,07,26,00,54,15.40
2008,07,26,00,55,15.40
2008,07,26,00,56,15.40
2008,07,26,00,57,15.40
2008,07,26,00,58,15.40
2008,07,26,00,59,15.40
2008,07,26,01,00,15.40
2008,07,26,01,01,15.40
2008,07,26,01,02,15.40
2008,07,26,01,03,15.40
2008,07,26,01,04,15.40
2008,07,26,01,05,15.50
2008,07,26,01,06,15.50
2008,07,26,01,07,15.50
2008,07,26,01,08,15.40
2008,07,26,01,09,15.50
2008,07,26,01,10,15.50
2008,07,26,01,11,15.50
2008,07,26,01,12,15.50
2008,07,26,01,13,15.50
2008,07,26,01,14,15.50
2008,07,26,01,15,15.50
2008,07,26,01,16,15.50
2008,07,26,01,17,15.50
2008,07,26,01,18,15.50
2008,07,26,01,19,15.50
2008,07,26,01,20,15.50
2008,07,26,01,21,15.50
2008,07,26,01,22,15.50
2008,07,26,01,23,15.50
2008,07,26,01,24,15.60
2008,07,26,01,25,15.60
2008,07,26,01,26,15.60
2008,07,26,01,27,15.60
2008,07,26,01,28,15.60
2008,07,26,01,29,15.60
2008,07,26,01,30,15.60
2008,07,26,01,31,15.60
2008,07,26,01,32,15.60
2008,07,26,01,33,15.60
2008,07,26,01,34,15.60
2008,07,26,01,35,15.60
2008,07,26,01,36,15.60
2008,07,26,01,37,15.60
2008,07,26,01,38,15.60
2008,07,26,01,39,15.60
2008,07,26,01,40,15.60
2008,07,26,01,41,15.60
2008,07,26,01,42,15.60
2008,07,26,01,43,15.60
2008,07,26,01,44,15.60
2008,07,26,01,45,15.60
2008,07,26,01,46,15.60
2008,07,26,01,47,15.60
2008,07,26,01,48,15.70
2008,07,26,01,49,15.70
2008,07,26,01,50,15.70
2008,07,26,01,51,15.70
2008,07,26,01,52,15.70
2008,07,26,01,53,15.70
2008,07,26,01,54,15.70
2008,07,26,01,55,15.60
2008,07,26,01,56,15.60
2008,07,26,01,57,15.60
2008,07,26,01,58,15.60
2008,07,26,01,59,15.60
2008,07,26,02,00,15.60
2008,07,26,02,01,15.60
2008,07,26,02,02,15.60
2008,07,26,02,03,15.60
2008,07,26,02,04,15.60
2008,07,26,02,05,15.60
2008,07,26,02,06,15.60
2008,07,26,02,07,15.60
2008,07,26,02,08,15.60
2008,07,26,02,09,15.60
2008,07,26,02,10,15.60
2008,07,26,02,11,15.60
2008,07,26,02,12,15.60
2008,07,26,02,13,15.60
2008,07,26,02,14,15.50
2008,07,26,02,15,15.50
2008,07,26,02,16,15.40
2008,07,26,02,17,15.40
2008,07,26,02,18,15.30
2008,07,26,02,19,15.20
2008,07,26,02,20,15.20
2008,07,26,02,21,15.10
2008,07,26,02,22,15.00
2008,07,26,02,23,15.00
2008,07,26,02,24,15.00
2008,07,26,02,25,15.00
2008,07,26,02,26,15.00
2008,07,26,02,27,15.00
2008,07,26,02,28,15.00
2008,07,26,02,29,15.00
2008,07,26,02,30,15.00
2008,07,26,02,31,15.00
2008,07,26,02,32,15.00
2008,07,26,02,33,15.00
2008,07,26,02,34,15.00
2008,07,26,02,35,14.90
2008,07,26,02,36,14.90
2008,07,26,02,37,14.80
2008,07,26,02,38,14.80
2008,07,26,02,39,14.80
2008,07,26,02,40,14.80
2008,07,26,02,41,14.80
2008,07,26,02,42,14.70
2008,07,26,02,43,14.70
2008,07,26,02,44,14.70
2008,07,26,02,45,14.70
2008,07,26,02,46,14.70
2008,07,26,02,47,14.60
2008,07,26,02,48,14.60
2008,07,26,02,49,14.60
2008,07,26,02,50,14.60
2008,07,26,02,51,14.60
2008,07,26,02,52,14.60
2008,07,26,02,53,14.60
2008,07,26,02,54,14.60
2008,07,26,02,55,14.60
2008,07,26,02,56,14.60
2008,07,26,02,57,14.60
2008,07,26,02,58,14.60
2008,07,26,02,59,14.60
2008,07,26,03,00,14.60
2008,07,26,03,01,14.60
2008,07,26,03,02,14.60
2008,07,26,03,03,14.60
2008,07,26,03,04,14.60
2008,07,26,03,05,14.60
2008,07,26,03,06,14.60
2008,07,26,03,07,14.50
2008,07,26,03,08,14.50
2008,07,26,03,09,14.50
2008,07,26,03,10,14.50
2008,07,26,03,11,14.50
2008,07,26,03,12,14.50
2008,07,26,03,13,14.50
2008,07,26,03,14,14.50
2008,07,26,03,15,14.50
2008,07,26,03,16,14.50
2008,07,26,03,17,14.40
2008,07,26,03,18,14.40
2008,07,26,03,19,14.40
2008,07,26,03,20,14.40
2008,07,26,03,21,14.40
2008,07,26,03,22,14.40
2008,07,26,03,23,14.40
2008,07,26,03,24,14.30
2008,07,26,03,25,14.30
2008,07,26,03,26,14.30
2008,07,26,03,27,14.30
2008,07,26,03,28,14.30
2008,07,26,03,29,14.30
2008,07,26,03,30,14.30
2008,07,26,03,31,14.30
2008,07,26,03,32,14.30
2008,07,26,03,33,14.30
2008,07,26,03,34,14.30
2008,07,26,03,35,14.30
2008,07,26,03,36,14.30
2008,07,26,03,37,14.30
2008,07,26,08,08,15.60
2008,07,26,08,09,15.60
2008,07,26,08,10,15.60
2008,07,26,08,11,15.60
2008,07,26,08,12,15.60
2008,07,26,08,13,15.60
2008,07,26,08,14,15.60
2008,07,26,08,15,15.70
2008,07,26,08,16,15.70
2008,07,26,08,17,15.70
2008,07,26,08,18,15.70
2008,07,26,08,19,15.80
2008,07,26,08,20,15.80
2008,07,26,08,21,15.80
2008,07,26,08,22,15.80
2008,07,26,08,23,15.80
2008,07,26,08,24,15.80
2008,07,26,08,25,15.80
2008,07,26,08,26,15.80
2008,07,26,08,27,15.70
2008,07,26,08,28,15.70
2008,07,26,08,29,15.70
2008,07,26,08,30,15.70
2008,07,26,08,31,15.70
2008,07,26,08,32,15.70
2008,07,26,08,33,15.70
2008,07,26,08,34,15.70
2008,07,26,08,35,15.60
2008,07,26,08,36,15.60
2008,07,26,08,37,15.60
2008,07,26,08,38,15.70
2008,07,26,08,39,15.70
2008,07,26,08,40,15.70
2008,07,26,08,41,15.70
2008,07,26,08,42,15.70
2008,07,26,08,43,15.70
2008,07,26,08,44,15.80
2008,07,26,08,45,15.80
2008,07,26,08,46,15.80
2008,07,26,08,47,15.80
2008,07,26,08,48,15.80
2008,07,26,08,49,15.80
2008,07,26,08,50,15.80
2008,07,26,08,51,15.90
2008,07,26,08,52,15.90
2008,07,26,08,53,15.90
2008,07,26,08,54,16.00
2008,07,26,08,55,16.00
2008,07,26,08,56,16.00
2008,07,26,08,57,15.90
2008,07,26,08,58,15.90
2008,07,26,08,59,15.90
2008,07,26,09,00,15.90
2008,07,26,09,01,15.90
2008,07,26,09,02,15.90
2008,07,26,09,03,15.90
2008,07,26,09,04,15.90
2008,07,26,09,05,15.90
2008,07,26,09,06,15.90
2008,07,26,09,07,15.90
2008,07,26,09,08,15.90
2008,07,26,09,09,15.90
2008,07,26,09,10,15.90
2008,07,26,09,11,15.90
2008,07,26,09,12,15.90
2008,07,26,09,13,16.00
2008,07,26,09,14,16.00
2008,07,26,09,15,16.10
2008,07,26,09,16,16.10
2008,07,26,09,17,16.10
2008,07,26,09,18,16.10
2008,07,26,09,19,16.10
2008,07,26,09,20,16.10
2008,07,26,09,21,16.10
2008,07,26,09,22,16.10
2008,07,26,09,23,16.10
2008,07,26,09,24,16.10
2008,07,26,09,25,16.10
2008,07,26,09,26,16.10
2008,07,26,09,27,16.10
2008,07,26,09,28,16.10
2008,07,26,09,29,16.10
2008,07,26,09,30,16.10
2008,07,26,09,31,16.20
2008,07,26,09,32,16.20
2008,07,26,09,33,16.20
2008,07,26,09,34,16.20
2008,07,26,09,35,16.20
2008,07,26,09,36,16.20
2008,07,26,09,37,16.20
2008,07,26,09,38,16.20
2008,07,26,09,39,16.20
2008,07,26,09,40,16.30
2008,07,26,09,41,16.30
2008,07,26,09,42,16.30
2008,07,26,09,43,16.30
2008,07,26,09,44,16.30
2008,07,26,09,45,16.30
2008,07,26,09,46,16.30
2008,07,26,09,47,16.40
2008,07,26,09,48,16.40
2008,07,26,09,49,16.40
2008,07,26,09,50,16.50
2008,07,26,09,51,16.50
2008,07,26,09,52,16.60
2008,07,26,09,53,16.60
2008,07,26,09,54,16.60
2008,07,26,09,55,16.70
2008,07,26,09,56,16.70
2008,07,26,09,57,16.70
2008,07,26,09,58,16.70
2008,07,26,09,59,16.70
2008,07,26,10,00,16.70
2008,07,26,10,01,16.70
2008,07,26,10,02,16.70
2008,07,26,10,03,16.70
2008,07,26,10,04,16.70
2008,07,26,10,05,16.70
2008,07,26,10,06,16.70
2008,07,26,10,07,16.80
2008,07,26,10,08,16.80
2008,07,26,10,09,16.80
2008,07,26,10,10,16.80
2008,07,26,10,11,16.90
2008,07,26,10,12,16.90
2008,07,26,10,13,16.90
2008,07,26,10,14,16.90
2008,07,26,10,15,16.90
2008,07,26,10,16,16.90
2008,07,26,10,17,17.00
2008,07,26,10,18,16.90
2008,07,26,10,19,16.90
2008,07,26,10,20,16.90
2008,07,26,10,21,16.90
2008,07,26,10,22,16.90
2008,07,26,10,23,17.00
2008,07,26,10,24,17.00
2008,07,26,10,25,17.00
2008,07,26,10,26,17.10
2008,07,26,10,27,17.10
2008,07,26,10,28,17.10
2008,07,26,10,29,17.10
2008,07,26,10,30,17.20
2008,07,26,10,31,17.20
2008,07,26,10,32,17.20
2008,07,26,10,33,17.20
2008,07,26,10,34,17.20
2008,07,26,10,35,17.20
2008,07,26,10,36,17.20
2008,07,26,10,37,17.20
2008,07,26,10,38,17.10
2008,07,26,10,39,17.10
2008,07,26,10,40,17.10
2008,07,26,10,41,17.00
2008,07,26,10,42,17.00
2008,07,26,10,43,16.90
2008,07,26,10,44,16.90
2008,07,26,10,45,16.90
2008,07,26,10,46,16.90
2008,07,26,10,47,16.90
2008,07,26,10,48,17.00
2008,07,26,10,49,17.00
2008,07,26,10,50,17.00
2008,07,26,10,51,17.10
2008,07,26,10,52,17.10
2008,07,26,10,53,17.10
2008,07,26,10,54,17.20
2008,07,26,10,55,17.20
2008,07,26,10,56,17.30
2008,07,26,10,57,17.30
2008,07,26,10,58,17.40
2008,07,26,10,59,17.40
2008,07,26,11,00,17.50
2008,07,26,11,01,17.60
2008,07,26,11,02,17.60
2008,07,26,11,03,17.70
2008,07,26,11,04,17.80
2008,07,26,11,05,17.90
2008,07,26,11,06,18.00
2008,07,26,11,07,18.10
2008,07,26,11,08,18.10
2008,07,26,11,09,18.10
2008,07,26,11,10,18.10
2008,07,26,11,11,18.00
2008,07,26,11,12,17.90
2008,07,26,11,13,17.90
2008,07,26,11,14,17.90
2008,07,26,11,15,18.00
2008,07,26,11,16,18.00
2008,07,26,11,17,18.00
2008,07,26,11,18,18.10
2008,07,26,11,19,18.10
2008,07,26,11,20,18.10
2008,07,26,11,21,18.10
2008,07,26,11,22,18.10
2008,07,26,11,23,18.10
2008,07,26,11,24,18.20
2008,07,26,11,25,18.20
2008,07,26,11,26,18.20
2008,07,26,11,27,18.20
2008,07,26,11,28,18.30
2008,07,26,11,29,18.30
2008,07,26,11,30,18.20
2008,07,26,11,31,18.10
2008,07,26,11,32,18.00
2008,07,26,11,33,17.90
2008,07,26,11,34,17.90
2008,07,26,11,35,17.80
2008,07,26,11,36,17.90
2008,07,26,11,37,18.00
2008,07,26,11,38,18.10
2008,07,26,11,39,18.20
2008,07,26,11,40,18.30
2008,07,26,11,41,18.50
2008,07,26,11,42,18.60
2008,07,26,11,43,18.70
2008,07,26,11,44,18.60
2008,07,26,11,45,18.60
2008,07,26,11,46,18.40
2008,07,26,11,47,18.30
2008,07,26,11,48,18.30
2008,07,26,11,49,18.20
2008,07,26,11,50,18.10
2008,07,26,11,51,18.10
2008,07,26,11,52,18.00
2008,07,26,11,53,18.00
2008,07,26,11,54,18.00
2008,07,26,11,55,17.90
2008,07,26,11,56,17.80
2008,07,26,11,57,17.80
2008,07,26,11,58,17.80
2008,07,26,11,59,17.80
2008,07,26,12,00,17.70
2008,07,26,12,01,17.80
2008,07,26,12,02,17.80
2008,07,26,12,03,17.70
2008,07,26,12,04,17.70
2008,07,26,12,05,17.60
2008,07,26,12,06,17.60
2008,07,26,12,07,17.60
2008,07,26,12,08,17.60
2008,07,26,12,09,17.60
2008,07,26,12,10,17.60
2008,07,26,12,11,17.60
2008,07,26,12,12,17.60
2008,07,26,12,13,17.60
2008,07,26,12,14,17.60
2008,07,26,12,15,17.70
2008,07,26,12,16,17.70
2008,07,26,12,17,17.70
2008,07,26,12,18,17.80
2008,07,26,12,19,17.80
2008,07,26,12,20,17.80
2008,07,26,12,21,17.70
2008,07,26,12,22,17.70
2008,07,26,12,23,17.60
2008,07,26,12,24,17.60
2008,07,26,12,25,17.60
2008,07,26,12,26,17.60
2008,07,26,12,27,17.50
2008,07,26,12,28,17.50
2008,07,26,12,29,17.50
2008,07,26,12,30,17.50
2008,07,26,12,31,17.60
2008,07,26,12,32,17.60
2008,07,26,12,33,17.60
2008,07,26,12,34,17.50
2008,07,26,12,35,17.50
2008,07,26,12,36,17.50
2008,07,26,12,37,17.50
2008,07,26,12,38,17.60
2008,07,26,12,39,17.60
2008,07,26,12,40,17.60
2008,07,26,12,41,17.60
2008,07,26,12,42,17.60
2008,07,26,12,43,17.60
2008,07,26,12,44,17.60
2008,07,26,12,45,17.60
2008,07,26,12,46,17.60
2008,07,26,12,47,17.60
2008,07,26,12,48,17.70
2008,07,26,12,49,17.70
2008,07,26,12,50,17.70
2008,07,26,12,51,17.60
2008,07,26,12,52,17.60
2008,07,26,12,53,17.50
2008,07,26,12,54,17.50
2008,07,26,12,55,17.50
2008,07,26,12,56,17.50
2008,07,26,12,57,17.60
2008,07,26,12,58,17.60
2008,07,26,12,59,17.60
2008,07,26,13,00,17.70
2008,07,26,13,01,17.60
2008,07,26,13,02,17.70
2008,07,26,13,03,17.70
2008,07,26,13,04,17.70
2008,07,26,13,05,17.70
2008,07,26,13,06,17.80
2008,07,26,13,07,17.80
2008,07,26,13,08,17.80
2008,07,26,13,09,17.70
2008,07,26,13,10,17.70
2008,07,26,13,11,17.60
2008,07,26,13,12,17.60
2008,07,26,13,13,17.60
2008,07,26,13,14,17.60
2008,07,26,13,15,17.60
2008,07,26,13,16,17.60
2008,07,26,13,17,17.60
2008,07,26,13,18,17.60
2008,07,26,13,19,17.60
2008,07,26,13,20,17.60
2008,07,26,13,21,17.70
2008,07,26,13,22,17.70
2008,07,26,13,23,17.70
2008,07,26,13,24,17.70
2008,07,26,13,25,17.60
2008,07,26,13,26,17.60
2008,07,26,13,27,17.60
2008,07,26,13,28,17.60
2008,07,26,13,29,17.60
2008,07,26,13,30,17.60
2008,07,26,13,31,17.60
2008,07,26,13,32,17.70
2008,07,26,13,33,17.70
2008,07,26,13,34,17.70
2008,07,26,13,35,17.70
2008,07,26,13,36,17.70
2008,07,26,13,37,17.60
2008,07,26,13,38,17.60
2008,07,26,13,39,17.70
2008,07,26,13,40,17.70
2008,07,26,13,41,17.70
2008,07,26,13,42,17.70
2008,07,26,13,43,17.70
2008,07,26,13,44,17.80
2008,07,26,13,45,17.80
2008,07,26,13,46,17.80
2008,07,26,13,47,17.90
2008,07,26,13,48,17.90
2008,07,26,13,49,17.90
2008,07,26,13,50,17.90
2008,07,26,13,51,17.90
2008,07,26,13,52,17.80
2008,07,26,13,53,17.90
2008,07,26,13,54,17.90
2008,07,26,13,55,17.90
2008,07,26,13,56,17.90
2008,07,26,13,57,17.90
2008,07,26,13,58,17.90
2008,07,26,13,59,17.90
2008,07,26,14,00,18.00
2008,07,26,14,01,18.00
2008,07,26,14,02,18.00
2008,07,26,14,03,18.00
2008,07,26,14,04,17.90
2008,07,26,14,05,18.00
2008,07,26,14,06,18.00
2008,07,26,14,07,18.10
2008,07,26,14,08,18.10
2008,07,26,14,09,18.10
2008,07,26,14,10,18.10
2008,07,26,14,11,18.00
2008,07,26,14,12,18.00
2008,07,26,14,13,18.00
2008,07,26,14,14,18.00
2008,07,26,14,15,18.00
2008,07,26,14,16,17.90
2008,07,26,14,17,17.90
2008,07,26,14,18,17.90
2008,07,26,14,19,18.00
2008,07,26,14,20,18.10
2008,07,26,14,21,18.10
2008,07,26,14,22,18.20
2008,07,26,14,23,18.20
2008,07,26,14,24,18.20
2008,07,26,14,25,18.20
2008,07,26,14,26,18.20
2008,07,26,14,27,18.20
2008,07,26,14,28,18.20
2008,07,26,14,29,18.30
2008,07,26,14,30,18.40
2008,07,26,14,31,18.50
2008,07,26,14,32,18.70
2008,07,26,14,33,18.80
2008,07,26,14,34,18.90
2008,07,26,14,35,19.00
2008,07,26,14,36,19.00
2008,07,26,14,37,19.10
2008,07,26,14,38,19.10
2008,07,26,14,39,19.20
2008,07,26,14,40,19.20
2008,07,26,14,41,19.20
2008,07,26,14,42,19.30
2008,07,26,14,43,19.20
2008,07,26,14,44,19.00
2008,07,26,14,45,18.90
2008,07,26,14,46,18.90
2008,07,26,14,47,19.00
2008,07,26,14,48,19.00
2008,07,26,14,49,19.00
2008,07,26,14,50,18.90
2008,07,26,14,51,18.90
2008,07,26,14,52,18.90
2008,07,26,14,53,18.90
2008,07,26,14,54,18.90
2008,07,26,14,55,18.80
2008,07,26,14,56,18.80
2008,07,26,14,57,18.80
2008,07,26,14,58,18.80
2008,07,26,14,59,18.80
2008,07,26,15,00,18.70
2008,07,26,15,01,18.70
2008,07,26,15,02,18.70
2008,07,26,15,03,18.70
2008,07,26,15,04,18.70
2008,07,26,15,05,18.70
2008,07,26,15,06,18.70
2008,07,26,15,07,18.70
2008,07,26,15,08,18.70
2008,07,26,15,09,18.60
2008,07,26,15,10,18.60
2008,07,26,15,11,18.50
2008,07,26,15,12,18.40
2008,07,26,15,13,18.40
2008,07,26,15,14,18.50
2008,07,26,15,15,18.50
2008,07,26,15,16,18.50
2008,07,26,15,17,18.50
2008,07,26,15,18,18.50
2008,07,26,15,19,18.50
2008,07,26,15,20,18.60
2008,07,26,15,21,18.70
2008,07,26,15,22,18.70
2008,07,26,15,23,18.70
2008,07,26,15,24,18.70
2008,07,26,15,25,18.70
2008,07,26,15,26,18.80
2008,07,26,15,27,18.80
2008,07,26,15,28,18.80
2008,07,26,15,29,18.80
2008,07,26,15,30,18.80
2008,07,26,15,31,18.70
2008,07,26,15,32,18.70
2008,07,26,15,33,18.80
2008,07,26,15,34,18.90
2008,07,26,15,35,19.00
2008,07,26,15,36,19.00
2008,07,26,15,37,19.00
2008,07,26,15,38,18.90
2008,07,26,15,39,18.90
2008,07,26,15,40,18.90
2008,07,26,15,41,18.90
2008,07,26,15,42,19.00
2008,07,26,15,43,19.00
2008,07,26,15,44,19.00
2008,07,26,15,45,19.00
2008,07,26,15,46,19.10
2008,07,26,15,47,19.20
2008,07,26,15,48,19.20
2008,07,26,15,49,19.10
2008,07,26,15,50,19.10
2008,07,26,15,51,19.10
2008,07,26,15,52,19.20
2008,07,26,15,53,19.20
2008,07,26,15,54,19.20
2008,07,26,15,55,19.30
2008,07,26,15,56,19.30
2008,07,26,15,57,19.30
2008,07,26,15,58,19.40
2008,07,26,15,59,19.50
2008,07,26,16,00,19.60
2008,07,26,16,01,19.70
2008,07,26,16,02,19.70
2008,07,26,16,03,19.80
2008,07,26,16,04,19.80
2008,07,26,16,05,19.80
2008,07,26,16,06,19.80
2008,07,26,16,07,19.80
2008,07,26,16,08,19.80
2008,07,26,16,09,19.70
2008,07,26,16,10,19.70
2008,07,26,16,11,19.70
2008,07,26,16,12,19.70
2008,07,26,16,13,19.70
2008,07,26,16,14,19.70
2008,07,26,16,15,19.60
2008,07,26,16,16,19.50
2008,07,26,16,17,19.60
2008,07,26,16,18,19.60
2008,07,26,16,19,19.60
2008,07,26,16,20,19.60
2008,07,26,16,21,19.60
2008,07,26,16,22,19.60
2008,07,26,16,23,19.50
2008,07,26,16,24,19.40
2008,07,26,16,25,19.20
2008,07,26,16,26,19.10
2008,07,26,16,27,19.00
2008,07,26,16,28,18.90
2008,07,26,16,29,18.80
2008,07,26,16,30,18.80
2008,07,26,16,31,18.90
2008,07,26,16,32,18.90
2008,07,26,16,33,19.00
2008,07,26,16,34,19.10
2008,07,26,16,35,19.10
2008,07,26,16,36,19.10
2008,07,26,16,37,19.20
2008,07,26,16,38,19.20
2008,07,26,16,39,19.20
2008,07,26,16,40,19.30
2008,07,26,16,41,19.40
2008,07,26,16,42,19.40
2008,07,26,16,43,19.40
2008,07,26,16,44,19.40
2008,07,26,16,45,19.40
2008,07,26,16,46,19.30
2008,07,26,16,47,19.20
2008,07,26,16,48,19.20
2008,07,26,16,49,19.20
2008,07,26,16,50,19.20
2008,07,26,16,51,19.30
2008,07,26,16,52,19.30
2008,07,26,16,53,19.40
2008,07,26,16,54,19.50
2008,07,26,16,55,19.40
2008,07,26,16,56,19.40
2008,07,26,16,57,19.40
2008,07,26,16,58,19.40
2008,07,26,16,59,19.50
2008,07,26,17,00,19.50
2008,07,26,17,01,19.60
2008,07,26,17,02,19.70
2008,07,26,17,03,19.80
2008,07,26,17,04,19.80
2008,07,26,17,05,19.80
2008,07,26,17,06,19.70
2008,07,26,17,07,19.70
2008,07,26,17,08,19.50
2008,07,26,17,09,19.50
2008,07,26,17,10,19.40
2008,07,26,17,11,19.30
2008,07,26,17,12,19.30
2008,07,26,17,13,19.20
2008,07,26,17,14,19.10
2008,07,26,17,15,19.10
2008,07,26,17,16,19.00
2008,07,26,17,17,18.90
2008,07,26,17,18,18.80
2008,07,26,17,19,18.80
2008,07,26,17,20,18.80
2008,07,26,17,21,18.80
2008,07,26,17,22,18.80
2008,07,26,17,23,18.80
2008,07,26,17,24,18.80
2008,07,26,17,25,18.80
2008,07,26,17,26,18.80
2008,07,26,17,27,18.90
2008,07,26,17,28,18.90
2008,07,26,17,29,18.90
2008,07,26,17,30,18.90
2008,07,26,17,31,18.90
2008,07,26,17,32,19.00
2008,07,26,17,33,19.00
2008,07,26,17,34,18.90
2008,07,26,17,35,18.90
2008,07,26,17,36,18.90
2008,07,26,17,37,18.90
2008,07,26,17,38,19.00
2008,07,26,17,39,19.00
2008,07,26,17,40,19.00
2008,07,26,17,41,19.00
2008,07,26,17,42,19.10
2008,07,26,17,43,19.10
2008,07,26,17,44,19.10
2008,07,26,17,45,19.30
2008,07,26,17,46,19.30
2008,07,26,17,47,19.30
2008,07,26,17,48,19.30
2008,07,26,17,49,19.30
2008,07,26,17,50,19.30
2008,07,26,17,51,19.30
2008,07,26,17,52,19.20
2008,07,26,17,53,19.20
2008,07,26,17,54,19.10
2008,07,26,17,55,19.10
2008,07,26,17,56,19.10
2008,07,26,17,57,19.10
2008,07,26,17,58,19.00
2008,07,26,17,59,18.90
2008,07,26,18,00,18.90
2008,07,26,18,01,18.90
2008,07,26,18,02,18.90
2008,07,26,18,03,18.90
2008,07,26,18,04,18.90
2008,07,26,18,05,18.90
2008,07,26,18,06,18.90
2008,07,26,18,07,18.90
2008,07,26,18,08,18.90
2008,07,26,18,09,18.90
2008,07,26,18,10,18.90
2008,07,26,18,11,18.90
2008,07,26,18,12,18.90
2008,07,26,18,13,18.90
2008,07,26,18,14,18.90
2008,07,26,18,15,18.90
2008,07,26,18,16,18.80
2008,07,26,18,17,18.80
2008,07,26,18,18,18.80
2008,07,26,18,19,18.80
2008,07,26,18,20,18.80
2008,07,26,18,21,18.80
2008,07,26,18,22,18.80
2008,07,26,18,23,18.80
2008,07,26,18,24,18.80
2008,07,26,18,25,18.80
2008,07,26,18,26,18.80
2008,07,26,18,27,18.90
2008,07,26,18,28,18.90
2008,07,26,18,29,18.90
2008,07,26,18,30,19.00
2008,07,26,18,31,18.90
2008,07,26,18,32,18.90
2008,07,26,18,33,18.90
2008,07,26,18,34,18.90
2008,07,26,18,35,18.80
2008,07,26,18,36,18.80
2008,07,26,18,37,18.80
2008,07,26,18,38,18.80
2008,07,26,18,39,18.70
2008,07,26,18,40,18.70
2008,07,26,18,41,18.70
2008,07,26,18,42,18.70
2008,07,26,18,43,18.60
2008,07,26,18,44,18.60
2008,07,26,18,45,18.60
2008,07,26,18,46,18.60
2008,07,26,18,47,18.60
2008,07,26,18,48,18.50
2008,07,26,18,49,18.50
2008,07,26,18,50,18.40
2008,07,26,18,51,18.40
2008,07,26,18,52,18.40
2008,07,26,18,53,18.50
2008,07,26,18,54,18.50
2008,07,26,18,55,18.50
2008,07,26,18,56,18.50
2008,07,26,18,57,18.50
2008,07,26,18,58,18.60
2008,07,26,18,59,18.50
2008,07,26,19,00,18.50
2008,07,26,19,01,18.60
2008,07,26,19,02,18.60
2008,07,26,19,03,18.50
2008,07,26,19,04,18.50
2008,07,26,19,05,18.50
2008,07,26,19,06,18.50
2008,07,26,19,07,18.50
2008,07,26,19,08,18.40
2008,07,26,19,09,18.40
2008,07,26,19,10,18.40
2008,07,26,19,11,18.40
2008,07,26,19,12,18.40
2008,07,26,19,13,18.40
2008,07,26,19,14,18.40
2008,07,26,19,15,18.40
2008,07,26,19,16,18.40
2008,07,26,19,17,18.40
2008,07,26,19,18,18.30
2008,07,26,19,19,18.30
2008,07,26,19,20,18.30
2008,07,26,19,21,18.30
2008,07,26,19,22,18.30
2008,07,26,19,23,18.30
2008,07,26,19,24,18.30
2008,07,26,19,25,18.30
2008,07,26,19,26,18.30
2008,07,26,19,27,18.30
2008,07,26,19,28,18.30
2008,07,26,19,29,18.30
2008,07,26,19,30,18.30
2008,07,26,19,31,18.30
2008,07,26,19,32,18.30
2008,07,26,19,33,18.30
2008,07,26,19,34,18.30
2008,07,26,19,35,18.30
2008,07,26,19,36,18.30
2008,07,26,19,37,18.40
2008,07,26,19,38,18.40
2008,07,26,19,39,18.40
2008,07,26,19,40,18.40
2008,07,26,19,41,18.40
2008,07,26,19,42,18.30
2008,07,26,19,43,18.30
2008,07,26,19,44,18.30
2008,07,26,19,45,18.30
2008,07,26,19,46,18.20
2008,07,26,19,47,18.20
2008,07,26,19,48,18.20
2008,07,26,19,49,18.20
2008,07,26,19,50,18.20
2008,07,26,19,51,18.10
2008,07,26,19,52,18.10
2008,07,26,19,53,18.10
2008,07,26,19,54,18.00
2008,07,26,19,55,18.00
2008,07,26,19,56,17.90
2008,07,26,19,57,17.90
2008,07,26,19,58,17.90
2008,07,26,19,59,17.80
2008,07,26,20,00,17.80
2008,07,26,20,01,17.80
2008,07,26,20,02,17.80
2008,07,26,20,03,17.80
2008,07,26,20,04,17.80
2008,07,26,20,05,17.80
2008,07,26,20,06,17.80
2008,07,26,20,07,17.70
2008,07,26,20,08,17.70
2008,07,26,20,09,17.70
2008,07,26,20,10,17.70
2008,07,26,20,11,17.70
2008,07,26,20,12,17.60
2008,07,26,20,13,17.60
2008,07,26,20,14,17.60
2008,07,26,20,15,17.60
2008,07,26,20,16,17.60
2008,07,26,20,17,17.50
2008,07,26,20,18,17.50
2008,07,26,20,19,17.50
2008,07,26,20,20,17.50
2008,07,26,20,21,17.50
2008,07,26,20,22,17.50
2008,07,26,20,23,17.40
2008,07,26,20,24,17.40
2008,07,26,20,25,17.40
2008,07,26,20,26,17.40
2008,07,26,20,27,17.40
2008,07,26,20,28,17.40
2008,07,26,20,29,17.40
2008,07,26,20,30,17.40
2008,07,26,20,31,17.30
2008,07,26,20,32,17.30
2008,07,26,20,33,17.30
2008,07,26,20,34,17.30
2008,07,26,20,35,17.30
2008,07,26,20,36,17.30
2008,07,26,20,37,17.30
2008,07,26,20,38,17.30
2008,07,26,20,39,17.30
2008,07,26,20,40,17.30
2008,07,26,20,41,17.30
2008,07,26,20,42,17.30
2008,07,26,20,43,17.30
2008,07,26,20,44,17.30
2008,07,26,20,45,17.30
2008,07,26,20,46,17.30
2008,07,26,20,47,17.30
2008,07,26,20,48,17.30
2008,07,26,20,49,17.30
2008,07,26,20,50,17.30
2008,07,26,20,51,17.30
2008,07,26,20,52,17.30
2008,07,26,20,53,17.30
2008,07,26,20,54,17.30
2008,07,26,20,55,17.30
2008,07,26,20,56,17.30
2008,07,26,20,57,17.30
2008,07,26,20,58,17.30
2008,07,26,20,59,17.30
2008,07,26,21,00,17.30
2008,07,26,21,01,17.20
2008,07,26,21,02,17.20
2008,07,26,21,03,17.20
2008,07,26,21,04,17.20
2008,07,26,21,05,17.20
2008,07,26,21,06,17.20
2008,07,26,21,07,17.20
2008,07,26,21,08,17.20
2008,07,26,21,09,17.20
2008,07,26,21,10,17.20
2008,07,26,21,11,17.20
2008,07,26,21,12,17.20
2008,07,26,21,13,17.20
2008,07,26,21,14,17.20
2008,07,26,21,15,17.20
2008,07,26,21,16,17.20
2008,07,26,21,17,17.20
2008,07,26,21,18,17.20
2008,07,26,21,19,17.20
2008,07,26,21,20,17.20
2008,07,26,21,21,17.20
2008,07,26,21,22,17.20
2008,07,26,21,23,17.20
2008,07,26,21,24,17.20
2008,07,26,21,25,17.20
2008,07,26,21,26,17.20
2008,07,26,21,27,17.20
2008,07,26,21,28,17.20
2008,07,26,21,29,17.20
2008,07,26,21,30,17.10
2008,07,26,21,31,17.10
2008,07,26,21,32,17.10
2008,07,26,21,33,17.10
2008,07,26,21,34,17.10
2008,07,26,21,35,17.10
2008,07,26,21,36,17.10
2008,07,26,21,37,17.10
2008,07,26,21,38,17.10
2008,07,26,21,39,17.10
2008,07,26,21,40,17.10
2008,07,26,21,41,17.00
2008,07,26,21,42,17.00
2008,07,26,21,43,17.00
2008,07,26,21,44,16.90
2008,07,26,21,45,16.90
2008,07,26,21,46,16.90
2008,07,26,21,47,16.90
2008,07,26,21,48,16.80
2008,07,26,21,49,16.80